Regional Weather Roundup
Issued by NWS

Home | Current Version | Previous Version | Text Only | Print | Product List | Glossary Off
Versions: 1 2 3 4 5 6 7 8 9 10 11 12 13 14 15 16 17 18 19 20 21 22 23 24 25 26 27 28 29 30 31 32 33 34 35 36 37 38 39 40 41 42 43 44 45 46 47 48 49 50

000
ASUS45 KCYS 020610
RWRWY

WYOMING REGIONAL WEATHER ROUNDUP
NATIONAL WEATHER SERVICE CHEYENNE WY
1200 AM MDT THU APR 02 2015

NOTE:  "FAIR" INDICATES FEW OR NO CLOUDS BELOW 12,000 FEET
WITH NO SIGNIFICANT WEATHER AND/OR OBSTRUCTIONS TO VISIBILITY.

WYZ001-020700-
YELLOWSTONE NATIONAL PARK

CITY           SKY/WX    TMP DP  RH WIND       PRES   REMARKS
LK YELLOWSTONE   N/A     18  13  80 CALM      29.97R
6HR MIN TEMP:  18; 6HR MAX TEMP:  29; 6HR PCP:  0.07;

W YELLOWSTONE  NOT AVBL

$$
WYZ002>013-054>058-071-098>099-020700-
NORTHERN WYOMING

CITY           SKY/WX    TMP DP  RH WIND       PRES   REMARKS
JACKSON        FAIR      27  12  54 S7        29.98R WCI  19
CODY           FAIR      34  19  55 W8G16     29.94F WCI  27
GREYBULL       FAIR      37  18  46 NW10      29.94S WCI  30
6HR MIN TEMP:  37; 6HR MAX TEMP:  52;

WORLAND        FAIR      34  16  47 NE6       29.94S WCI  29
6HR MIN TEMP:  34; 6HR MAX TEMP:  51;

SHERIDAN       FAIR      33  15  47 CALM      29.91S
6HR MIN TEMP:  31; 6HR MAX TEMP:  50;

BUFFALO        FAIR      29  12  49 W5        29.90F WCI  24
6HR MIN TEMP:  28; 6HR MAX TEMP:  46;

GILLETTE       MOCLDY    27  12  53 W9        29.89F WCI  18
6HR MIN TEMP:  25; 6HR MAX TEMP:  48;

HULETT         FAIR      34  10  37 SW8       29.88S WCI  27
NEWCASTLE      FAIR      30  10  43 N6        29.91S WCI  24

$$
WYZ014>020-022>026-101>103-020700-
CENTRAL WYOMING

CITY           SKY/WX    TMP DP  RH WIND       PRES   REMARKS
BIG PINEY      FAIR      24   8  50 E3        29.99S
6HR MIN TEMP:  23; 6HR MAX TEMP:  41;

PINEDALE       MOCLDY    23  16  74 CALM      29.99S
DUBOIS         FAIR      19  12  73 NW8       29.93S WCI   9
LANDER         FAIR      32  13  45 S3        29.93S
6HR MIN TEMP:  32; 6HR MAX TEMP:  49;

RIVERTON       FAIR      33  13  43 NW15      29.94S WCI  23
6HR MIN TEMP:  33; 6HR MAX TEMP:  49;

CASPER         FAIR      33  17  51 CALM      29.93S
6HR MIN TEMP:  33; 6HR MAX TEMP:  50;

DOUGLAS        FAIR      35  18  49 W5        29.93F WCI  31
6HR MIN TEMP:  34; 6HR MAX TEMP:  48;


$$
WYZ021-027>030-104>119-020700-
SOUTHERN WYOMING

CITY           SKY/WX    TMP DP  RH WIND       PRES   REMARKS
EVANSTON       FAIR      31   2  29 SE5       29.97F WCI  26
6HR MIN TEMP:  28; 6HR MAX TEMP:  41;

ROCK SPRINGS   FAIR      31   4  31 NW3       29.97F
6HR MIN TEMP:  30; 6HR MAX TEMP:  44;

DIXON          FAIR      31  13  46 CALM      30.02R
RAWLINS        FAIR      35   5  28 W8        29.96R WCI  29
6HR MIN TEMP:  35; 6HR MAX TEMP:  46;

SARATOGA       FAIR      32   5  32 SW8       29.98S WCI  25
LARAMIE        FAIR      35   2  24 N12       29.92S WCI  27
6HR MIN TEMP:  32; 6HR MAX TEMP:  51;

CHEYENNE       FAIR      33  22  63 N9        29.93R WCI  25
6HR MIN TEMP:  33; 6HR MAX TEMP:  55;

TORRINGTON     FAIR      34  23  64 NW10      29.91S WCI  26
6HR MIN TEMP:  32; 6HR MAX TEMP:  51;

PINE BLUFFS    FAIR      30  23  74 NW12      29.92F WCI  21

$$



USA.gov is the U.S. government's official web portal to all federal, state and local government web resources and services.